User: anonymous   Login
Location: Unspecified
(0.0000°N, 0.0000°E)
Time: 03:01:13
(UTC+00:00)
Language:

STARLINK-31576 - Orbit

View from above orbital plane
View from above orbital plane
View from above satellite
View from above satellite

Ground track
Ground track

The orbit is defined by the following mean orbital elements,

1 59208U          26145.44112513 +.00000000 +00000-0 +23683-4 0 00002
2 59208  53.1598 157.9079 0001113  85.6106 274.5024 15.34395058    04
Epoch (UTC): 25 May 2026 10:35:13
Eccentricity: 0.0001113
inclination: 53.1598°
perigee height: 462 km
apogee height: 463 km
right ascension of ascending node: 157.9079°
argument of perigee: 85.6106°
revolutions per day: 15.34395058
mean anomaly at epoch: 274.5024°

The dashed part of the orbit path shows where the satellite is in the earth's shadow,  

DLR